YBBN

Brisbane Airport

Airport
ICAO code
YBBN
IATA Code
BNE
Summary
ICAO Region
APAC
ICAO Territory
Location

Brisbane, Queensland

Serving
Brisbane
Elevation
13 ft
Coordinates
27° 23' 30" S , 153° 7' 21" E
KCC
Metar
Observation
YBBN 290730Z 10008KT 9999 SCT018 BKN025 24/20 Q1008
Station
Brisbane Airport M. O
Date/Time
2022-11-29 07:30:00
Wind direction
100°
Wind speed
08 kts
Lowest cloud amount
scattered clouds
Temperature
24°C
Dew point
20°C
Humidity
78%
QNH
1008 hPa
Weather condition
n/a

Description

Serves the city of Brisbane and the surrounding metropolitan area.

Climatology

Humid “subtropical” climate (Köppen climate classification Cfa) - characterized by hot, humid summers and cool winters. Significant amounts of precipitation occur in all seasons in most areas. Most summer rainfall occurs during thunderstorms and occasional tropical storms.

SKYbrary Partners:

Safety knowledge contributed by: